[[{"header":{"parameterUnit":"m.s-1","parameterCategory":1,"la1":30.2991,"la2":30.254,"lo1":-89.0895,"lo2":-89.0444,"dy":0.0017,"dx":0.0017,"nx":28,"ny":28,"refTime":"2023-07-20T21:00:00:Z","depth":0,"parameterNumber":2,"parameterNumberName":"U-component_of_WINDS"},"data":[0,0,0,0,0,0,0,0,0,0,0,0,0,0,0,0,0,0,0,0,0,0,0,0,0,0,0,0,0,0,0,0,0,0,0,0,0,0,0,0,0,0,0,0,0,0,0,0,0,0,0,0,0,0,0,0,0,0,3.6769,3.677,0,3.6914,3.6915,3.6917,3.6887,3.6885,3.6882,3.688,3.7031,3.7037,3.7043,0,0,0,0,0,0,0,0,0,0,0,0,0,3.6469,3.6474,3.6768,3.677,3.6772,3.6913,3.6915,3.6917,3.6888,3.6885,3.6881,3.6878,3.7028,3.7036,3.7044,0,0,0,0,0,0,0,0,0,0,0,0,0,3.6605,3.6476,3.6768,3.6774,3.6776,3.6913,3.6915,3.6918,3.6889,3.6885,3.6881,3.6877,3.7026,3.7035,3.7045,3.7185,0,0,3.7075,3.7079,0,0,0,0,0,0,0,0,3.6597,3.6616,3.6772,3.6774,3.6777,3.6878,3.6865,3.7007,3.689,3.6846,3.6879,3.6875,3.6983,3.6996,3.7032,3.7192,3.7198,3.7076,3.7081,3.7086,3.7088,0,0,0,0,0,0,0,3.6588,3.661,3.6826,3.6774,3.6777,3.6771,3.6786,3.6892,3.6935,3.685,3.6848,3.6865,3.6984,3.7023,3.7036,3.7201,3.7075,3.7084,3.709,3.7094,3.7483,3.7487,0,0,0,0,0,0,3.6576,3.6602,3.6821,3.683,3.6675,3.6779,3.6796,3.685,3.6934,3.6943,3.6868,3.6863,3.7008,3.7024,3.7041,3.721,3.7086,3.7095,3.71,3.7479,3.7484,3.7489,0,0,0,0,0,0,3.657,3.6596,3.6815,3.6716,3.6743,3.6789,3.6849,3.6855,3.6894,3.6948,3.6956,3.69,3.7006,3.7027,3.7149,3.7215,3.7099,3.7108,3.7473,3.748,3.7486,3.755,0,0,0,0,0,0,3.6561,3.6594,3.6647,3.6717,3.6749,3.6921,3.6853,3.686,3.691,3.6905,3.698,3.6989,3.7004,3.7135,3.7159,3.7226,3.7116,3.7468,3.7476,3.7484,3.7543,3.7558,3.7572,0,0,0,0,0,3.655,3.6659,3.6649,3.6676,3.6816,3.6925,3.6943,3.6958,3.6916,3.697,3.7005,3.6986,3.7204,3.7148,3.7174,3.7246,3.7463,3.7474,3.7484,3.7536,3.7555,3.7572,0,0,0,0,0,0,3.6596,3.6669,3.6658,3.6793,3.6853,3.6919,3.6988,3.6978,3.7051,3.7043,3.7059,3.7076,3.7201,3.7236,3.7171,3.7386,3.7328,3.7344,3.7358,3.7377,3.7392,3.7381,3.7124,0,0,0,0,0,3.6622,3.6703,3.6763,3.6876,3.6906,3.6942,3.699,3.6996,3.7059,3.7085,3.7129,3.7191,3.7273,3.7327,3.7406,3.7548,3.7564,3.761,3.7625,3.7637,3.765,3.7728,3.7749,3.7522,3.7522,3.7522,0,0,3.6676,3.6726,3.6776,3.6886,3.6933,3.7018,3.6964,3.7056,3.7119,3.7099,3.7216,3.7251,3.7322,3.7454,3.7515,3.7487,3.7717,3.765,3.7659,3.7666,3.774,3.7762,3.7781,3.7529,3.7528,3.7527,0,0,3.6817,3.6863,3.6963,3.7011,3.7082,3.7105,3.7129,3.7198,3.722,3.7338,3.7325,3.7401,3.7542,3.7593,3.7638,3.7799,3.7785,3.7825,3.7902,3.7977,3.7995,3.8011,3.8068,3.8089,3.7838,3.7838,3.7839,0,3.6876,3.7002,3.7015,3.7109,3.7158,3.7143,3.7244,3.729,3.7384,3.7419,3.7387,3.7564,3.7611,3.7755,3.7794,3.7831,3.7859,3.7816,3.7991,3.8007,3.8022,3.8077,3.8099,3.7843,3.7842,3.7842,3.7841,0,3.707,3.7159,3.723,3.7321,3.7378,3.7475,3.7503,3.756,3.7561,3.7588,3.7709,3.7765,3.7854,3.7889,3.7892,3.8034,3.8015,3.7987,3.7929,3.8048,3.81,3.8121,3.7849,3.7847,3.7846,3.7845,0,0,3.7245,3.7341,3.7367,3.7408,3.7486,3.7555,3.7651,3.7738,3.7787,3.7853,3.7934,3.8055,3.8029,3.808,3.8088,3.8154,3.8279,3.8118,3.812,3.8146,3.8439,3.8459,3.8483,3.827,3.8274,3.8277,3.8433,0,3.7393,3.7563,3.7577,3.773,3.7812,3.7799,3.7883,3.794,3.7968,3.8042,3.8074,3.8158,3.8119,3.8149,3.8214,3.825,3.8338,3.8239,3.8347,3.835,3.8329,3.8511,3.8532,3.8676,3.8453,3.8457,3.8459,0,3.7589,3.766,3.782,3.7887,3.7922,3.7997,3.8078,3.8149,3.8214,3.823,3.8287,3.8286,3.8386,3.8325,3.8463,3.8396,3.8441,3.8465,3.8471,3.8482,3.8412,3.8526,3.8723,3.8744,3.8492,3.8489,3.8487,0,3.77,3.7835,3.7949,3.7984,3.8065,3.8118,3.8154,3.8216,3.8267,3.8339,3.8372,3.8455,3.85,3.8564,3.8586,3.8539,3.8724,3.8664,3.874,3.874,3.8779,3.8776,3.8986,3.8809,3.8809,3.8808,3.8808,0,3.7864,3.7963,3.7999,3.8069,3.818,3.8196,3.8305,3.8339,3.8393,3.847,3.8464,3.8537,3.8561,3.8638,3.8656,3.8768,3.8789,3.8805,3.8808,3.8805,3.8803,3.8835,3.8825,3.8814,3.8813,3.8812,3.8811,0,3.8007,3.8035,3.8158,3.8224,3.8243,3.8321,3.8378,3.8446,3.8473,3.857,3.8594,3.8636,3.8726,3.8754,3.8863,3.8876,3.9006,3.9001,3.8984,3.8984,3.9059,3.9051,3.9296,3.9328,3.913,3.9132,3.9134,0,3.8109,3.8185,3.8259,3.8309,3.8347,3.8429,3.8481,3.8501,3.8556,3.8636,3.8694,3.8783,3.8855,3.8999,3.904,3.9124,3.9121,3.9201,3.9133,3.9127,3.9121,3.9116,3.9124,3.9213,3.9215,3.9217,3.9218,0,3.8289,3.8299,3.8374,3.8455,3.8517,3.8582,3.8644,3.8686,3.8714,3.8776,3.8868,3.8924,3.9034,3.9123,3.9208,3.9246,3.9238,3.9239,3.9261,3.9258,3.9245,3.9253,3.9018,3.9233,3.9232,3.9231,3.923,3.9229,3.8414,3.8481,3.8543,3.8627,3.8676,3.8734,3.8801,3.8836,3.8912,3.9003,3.901,3.9109,3.9173,3.9286,3.9328,3.9406,3.9384,3.9416,3.9424,3.9431,3.9437,3.9233,3.9422,3.9422,3.9421,3.9421,3.9421,0,3.8593,3.8633,3.871,3.8797,3.8863,3.8848,3.8916,3.8973,3.906,3.912,3.919,3.9296,3.9381,3.9429,3.9515,3.9568,3.9567,3.959,3.9586,3.9595,3.9452,3.9425,3.959,3.959,3.959,3.959,3.959,3.959,3.8694,3.8806,3.8823,3.8959,3.8998,3.9094,3.9134,3.9188,3.9236,3.9354,3.9424,3.9455,3.951,3.96,3.9678,3.969,3.9722,3.9748,3.9757,3.9623,3.9605,3.9589,3.9563,3.9755,3.9755,3.9894,3.9895,3.9896]},{"header":{"parameterUnit":"m.s-1","parameterCategory":1,"la1":30.2991,"la2":30.254,"lo1":-89.0895,"lo2":-89.0444,"dy":0.0017,"dx":0.0017,"nx":28,"ny":28,"refTime":"2023-07-20T21:00:00:Z","depth":0,"parameterNumber":3,"parameterNumberName":"V-component_of_WINDS"},"data":[0,0,0,0,0,0,0,0,0,0,0,0,0,0,0,0,0,0,0,0,0,0,0,0,0,0,0,0,0,0,0,0,0,0,0,0,0,0,0,0,0,0,0,0,0,0,0,0,0,0,0,0,0,0,0,0,0,0,-0.4766,-0.4766,0,-0.4724,-0.4723,-0.4723,-0.4699,-0.4699,-0.4698,-0.4698,-0.4653,-0.4652,-0.465,0,0,0,0,0,0,0,0,0,0,0,0,0,-0.4826,-0.4825,-0.4766,-0.4766,-0.4765,-0.4724,-0.4723,-0.4723,-0.4699,-0.4699,-0.4698,-0.4698,-0.4653,-0.4652,-0.465,0,0,0,0,0,0,0,0,0,0,0,0,0,-0.4793,-0.4825,-0.4766,-0.4748,-0.4746,-0.4724,-0.4723,-0.4722,-0.4699,-0.4699,-0.4698,-0.4698,-0.4653,-0.4652,-0.465,-0.4642,0,0,-0.4645,-0.4644,0,0,0,0,0,0,0,0,-0.4795,-0.4791,-0.4752,-0.475,-0.4747,-0.4716,-0.4727,-0.4695,-0.4699,-0.4717,-0.4698,-0.4698,-0.4674,-0.467,-0.4663,-0.4639,-0.4638,-0.4645,-0.4644,-0.4643,-0.4642,0,0,0,0,0,0,0,-0.4797,-0.4793,-0.4749,-0.4751,-0.4748,-0.4742,-0.4737,-0.4721,-0.4696,-0.4715,-0.4713,-0.4709,-0.4673,-0.4664,-0.4661,-0.4637,-0.4645,-0.4643,-0.4642,-0.4641,-0.4605,-0.4605,0,0,0,0,0,0,-0.4803,-0.4795,-0.4751,-0.4748,-0.4772,-0.4741,-0.4736,-0.4726,-0.4696,-0.4692,-0.4709,-0.4708,-0.4667,-0.4663,-0.466,-0.4648,-0.4643,-0.4641,-0.464,-0.4605,-0.4605,-0.4605,0,0,0,0,0,0,-0.4804,-0.4799,-0.4752,-0.4771,-0.4765,-0.474,-0.473,-0.4726,-0.4717,-0.4692,-0.4687,-0.4705,-0.4667,-0.4662,-0.4647,-0.4646,-0.4641,-0.4639,-0.4605,-0.4605,-0.4605,-0.4624,0,0,0,0,0,0,-0.4806,-0.48,-0.4796,-0.4771,-0.4764,-0.474,-0.473,-0.4725,-0.4715,-0.4713,-0.4687,-0.4682,-0.4667,-0.4649,-0.4645,-0.4644,-0.4638,-0.4605,-0.4605,-0.4605,-0.4624,-0.4625,-0.4626,0,0,0,0,0,-0.4808,-0.4803,-0.4796,-0.4791,-0.4759,-0.474,-0.4736,-0.4719,-0.4715,-0.4711,-0.4695,-0.4683,-0.4647,-0.4648,-0.4643,-0.4641,-0.4605,-0.4605,-0.4605,-0.4623,-0.4625,-0.4626,0,0,0,0,0,0,-0.4828,-0.4799,-0.4792,-0.4778,-0.4762,-0.4736,-0.4731,-0.4721,-0.4705,-0.4704,-0.4682,-0.4677,-0.4663,-0.4651,-0.4652,-0.4631,-0.4625,-0.4624,-0.464,-0.4642,-0.4643,-0.4646,-0.4636,0,0,0,0,0,-0.4831,-0.4818,-0.4794,-0.4784,-0.4777,-0.4756,-0.4747,-0.4735,-0.4717,-0.471,-0.4692,-0.4675,-0.466,-0.465,-0.4635,-0.4622,-0.4616,-0.4618,-0.462,-0.4621,-0.462,-0.4613,-0.4614,-0.4606,-0.4606,-0.4606,0,0,-0.4836,-0.4819,-0.4812,-0.4788,-0.4774,-0.4761,-0.475,-0.4737,-0.4727,-0.4708,-0.4692,-0.4679,-0.4658,-0.4644,-0.4637,-0.4633,-0.4621,-0.4621,-0.4622,-0.4621,-0.4613,-0.4614,-0.4615,-0.4606,-0.4606,-0.4606,0,0,-0.4839,-0.4826,-0.4816,-0.4803,-0.4783,-0.4769,-0.4767,-0.4743,-0.4734,-0.4718,-0.4703,-0.4692,-0.4666,-0.4652,-0.4641,-0.4641,-0.463,-0.4637,-0.4643,-0.4637,-0.4637,-0.4638,-0.4638,-0.4638,-0.4636,-0.4636,-0.4636,0,-0.4848,-0.4829,-0.4812,-0.4801,-0.479,-0.4773,-0.4764,-0.4751,-0.4727,-0.472,-0.4716,-0.4684,-0.4669,-0.4652,-0.4652,-0.4644,-0.4641,-0.4639,-0.4639,-0.4639,-0.4639,-0.4639,-0.4639,-0.4637,-0.4637,-0.4637,-0.4637,0,-0.4842,-0.4829,-0.4824,-0.4801,-0.4791,-0.478,-0.4761,-0.4752,-0.4742,-0.4728,-0.4713,-0.4694,-0.4675,-0.4671,-0.466,-0.4652,-0.465,-0.4643,-0.4636,-0.4641,-0.464,-0.464,-0.4639,-0.4638,-0.4638,-0.4638,0,0,-0.4855,-0.4824,-0.4823,-0.4813,-0.479,-0.4779,-0.4768,-0.475,-0.4743,-0.4727,-0.4717,-0.4696,-0.469,-0.4678,-0.4665,-0.466,-0.4661,-0.4653,-0.4652,-0.4655,-0.4652,-0.4657,-0.4657,-0.4654,-0.4654,-0.4654,-0.4653,0,-0.4855,-0.4834,-0.4819,-0.4804,-0.4792,-0.4777,-0.4767,-0.4752,-0.4739,-0.4727,-0.4713,-0.4699,-0.4691,-0.4684,-0.4678,-0.4662,-0.466,-0.4662,-0.4644,-0.4643,-0.4649,-0.4657,-0.4662,-0.4662,-0.4653,-0.4653,-0.4653,0,-0.4851,-0.4837,-0.4821,-0.48,-0.4795,-0.4786,-0.4769,-0.4758,-0.474,-0.4732,-0.4719,-0.4707,-0.4694,-0.4689,-0.4672,-0.4674,-0.4665,-0.4657,-0.4657,-0.4653,-0.4648,-0.4653,-0.4662,-0.4662,-0.4652,-0.4652,-0.4652,0,-0.4862,-0.4839,-0.4827,-0.4819,-0.4794,-0.4788,-0.4778,-0.476,-0.4751,-0.4736,-0.4729,-0.4713,-0.4704,-0.4691,-0.4675,-0.4673,-0.4659,-0.4653,-0.4651,-0.4652,-0.4648,-0.4648,-0.4655,-0.4644,-0.4644,-0.4644,-0.4644,0,-0.4863,-0.4854,-0.4831,-0.4824,-0.4813,-0.4796,-0.4786,-0.4774,-0.4759,-0.4749,-0.4734,-0.4725,-0.4704,-0.4692,-0.4679,-0.4666,-0.4662,-0.4655,-0.4651,-0.4656,-0.4657,-0.4649,-0.4649,-0.4644,-0.4644,-0.4644,-0.4644,0,-0.4873,-0.4858,-0.4843,-0.4822,-0.4816,-0.4809,-0.479,-0.4782,-0.477,-0.4757,-0.4753,-0.4733,-0.4718,-0.4701,-0.468,-0.4672,-0.466,-0.4655,-0.4666,-0.4664,-0.4663,-0.4664,-0.4665,-0.4664,-0.4655,-0.4655,-0.4655,0,-0.4875,-0.4867,-0.4845,-0.4838,-0.4828,-0.4816,-0.4806,-0.479,-0.478,-0.4761,-0.4755,-0.474,-0.4726,-0.4703,-0.4686,-0.4671,-0.4665,-0.4667,-0.4663,-0.4667,-0.4665,-0.4665,-0.4664,-0.4668,-0.4668,-0.4668,-0.4668,0,-0.4879,-0.4872,-0.4859,-0.4844,-0.4833,-0.482,-0.4807,-0.4801,-0.4782,-0.4772,-0.4758,-0.4747,-0.4727,-0.4711,-0.4694,-0.4683,-0.4672,-0.467,-0.4669,-0.4673,-0.4679,-0.4675,-0.4668,-0.467,-0.4669,-0.4669,-0.4669,-0.4669,-0.4884,-0.4877,-0.4861,-0.4847,-0.4836,-0.4824,-0.4815,-0.4802,-0.479,-0.4772,-0.4763,-0.4749,-0.4732,-0.4708,-0.4697,-0.4685,-0.4681,-0.468,-0.4679,-0.4679,-0.468,-0.4682,-0.4682,-0.4682,-0.4682,-0.4682,-0.4682,0,-0.4887,-0.4876,-0.4864,-0.4846,-0.4836,-0.4828,-0.4813,-0.4804,-0.4792,-0.4778,-0.4765,-0.4749,-0.4734,-0.4717,-0.4701,-0.4695,-0.469,-0.4691,-0.4691,-0.4689,-0.4684,-0.4687,-0.4696,-0.4696,-0.4696,-0.4696,-0.4696,-0.4696,-0.4887,-0.4875,-0.4867,-0.4849,-0.4838,-0.4824,-0.4816,-0.4805,-0.4794,-0.4776,-0.4764,-0.4753,-0.4738,-0.4721,-0.4707,-0.4703,-0.4697,-0.47,-0.4694,-0.469,-0.4689,-0.4688,-0.469,-0.4699,-0.4699,-0.4699,-0.4699,-0.4699]}]]